Other Public Products
Issued by NWS Grand Forks, ND

Home | Current Version | Previous Version | Text Only | Print | Product List | Glossary Off
Versions: 1 2 3 4 5 6 7 8 9 10 11 12 13 14 15 16 17 18 19 20 21 22 23 24 25 26 27 28 29 30 31 32 33 34 35 36 37 38 39 40 41 42 43 44 45 46 47 48 49 50

000
FPUS83 KFGF 221910
OPUFGF
PRAIRIE TO PINES WEATHER ROUNDUP
NATIONAL WEATHER SERVICE EASTERN NORTH DAKOTA/GRAND FORKS ND
200 PM CDT TUE JUL 22 2014

 **SATELLITE DATA USED TO AUGMENT SKY COVER AT AUTOMATED STATIONS**
 *****  WEATHER ACROSS EASTERN NORTH DAKOTA  *****

CITY           SKY/WX    TMP DP  RH WIND       PRES   REMARKS
GRAND FORKS    SUNNY     75  57  53 N10       30.15R
GRAND FORKS AF SUNNY     74  59  58 NW9       30.17R
GRAND CITY NWS   N/A     77 N/A N/A N10         N/A
BUXTON         NOT AVBL
DEVILS LAKE    MOSUNNY   73  57  56 N5        30.17S
FARGO          SUNNY     78  58  49 N17G25    30.14R
WAHPETON ARPT  MOCLDY    77  54  44 N13G24    30.13S
$$

 *****  WEATHER ACROSS CENTRAL AND WESTERN NORTH DAKOTA  *****

CITY           SKY/WX    TMP DP  RH WIND       PRES   REMARKS
JAMESTOWN      MOSUNNY   77  60  55 NW10      30.18R
BISMARCK       MOSUNNY   78  62  57 CALM      30.20S
MINOT          MOSUNNY   76  59  55 VRB5      30.19S
MINOT AFB      PTSUNNY   75  63  67 N6        30.18S
GARRISON         N/A     74  63  68 S6        30.21R
WILLISTON      CLOUDY    81  55  40 VRB3      30.17F
DICKINSON      MOSUNNY   76  65  68 E10       30.20F
HETTINGER      MOSUNNY   80  59  48 MISG      30.22F
$$

 *****  OTHER OBSERVATIONS NORTHEAST NORTH DAKOTA  *****

CITY           SKY/WX    TMP DP  RH WIND       PRES   REMARKS
WALHALLA       FAIR      75  57  53 NW9         N/A
LANGDON        MOCLDY    73  57  56 NW13      30.19S
CAVALIER       FAIR      73  55  53 N10       30.16R
GRAFTON        FAIR      75  55  50 NW16      30.16R
CANDO          FAIR      75  57  53 N6        30.19
FORT TOTTEN    NOT AVBL
ROLLA            N/A     72  57  60 N7        30.21S
RUGBY          FAIR      73  61  64 E5        30.19S
 ***** THE ABOVE OBSERVATIONS ARE NON NWS ARE NOT QUALITY
        CONTROLLED AND MAY MIS-REPORT RAIN FOR SNOW...
$$

 *****  OTHER OBSERVATIONS SOUTHEAST NORTH DAKOTA *****

CITY           SKY/WX    TMP DP  RH WIND       PRES   REMARKS
COOPERSTOWN    NOT AVBL
VALLEY CITY    FAIR      77  59  53 N8        30.18R
OAKES          NOT AVBL
GWINNER        CLEAR     79  57  47 N13       30.17S
SHEYENNE NWR     N/A     78  56  45 N9        29.95S
BUFFALO        NOT AVBL
WYNDMERE       NOT AVBL
 ***** THE ABOVE OBSERVATIONS ARE NON NWS ARE NOT QUALITY
       CONTROLLED AND MAY MIS-REPORT RAIN FOR SNOW...
$$

  *****  WEATHER ACROSS NORTHERN MINNESOTA  *****

CITY           SKY/WX    TMP DP  RH WIND       PRES   REMARKS
FLAG ISLAND    SUNNY     72  46  40 N15G22    30.08R
WARROAD        NOT AVBL
ROSEAU         SUNNY     73  54  49 NW10G22   30.11R
HALLOCK        MOSUNNY   73  54  49 NW13      30.14R
THF RVR FALLS  SUNNY     73  52  46 NW14      30.14R
HALSTAD        NOT AVBL
FOSSTON        SUNNY     72  54  53 NW17G25   30.13R
BAUDETTE       SUNNY     73  54  51 N14G23    30.10R
WASKISH        MOSUNNY   75  55  50 NW13G21   30.08R
CROOKSTON      SUNNY     73  57  56 NW16      30.15R
$$
  *****  WEATHER ACROSS CENTRAL AND WEST MINNESOTA  *****

CITY           SKY/WX    TMP DP  RH WIND       PRES   REMARKS
BEMIDJI        MOSUNNY   74  54  50 N13G18    30.10R
PARK RAPIDS    SUNNY     77  49  37 N20G26    30.09R
WADENA         MOSUNNY   75  54  46 N17G24    30.09S
DETROIT LAKES  SUNNY     73  54  49 N17G23    30.14R
MOORHEAD       SUNNY     75  63  64 N16       30.14S
FERGUS FALLS   PTSUNNY   73  52  46 N16G23    30.12R
ELBOW LAKE     FAIR      72  58  61 N16G24    30.11S
MORRIS MN      PTSUNNY   75  57  53 N17G25    30.11R
STAPLES        MOSUNNY   75  52  43 NW15      30.08R
WHEATON        PTSUNNY   73  57  56 N14       30.14R
$$
  *****  WEATHER ELSEWHERE ACROSS MINNESOTA  *****

CITY           SKY/WX    TMP DP  RH WIND       PRES   REMARKS
DULUTH         MOSUNNY   77  59  53 NW15G24   29.98R
INTRNTL FALLS  MOSUNNY   73  55  53 N15       30.04R
ELY            PTSUNNY   72  57  60 N13G20    30.00R
CLOQUET        PTSUNNY   75  57  53 NW14G21   30.00R
BRAINERD       MOSUNNY   77  52  41 NW20      30.06R
HIBBING        MOSUNNY   77  57  50 N23G29    30.01R
ALEXANDRIA     PTSUNNY   75  56  51 N16G24    30.12R
SAINT CLOUD    SUNNY     82  58  43 N14G25    30.03R
MINNEAPOLIS    MOSUNNY   82  64  54 NW13G20   30.01R
$$

  *****  WEATHER ACROSS SOUTH DAKOTA  *****

CITY           SKY/WX    TMP DP  RH WIND       PRES   REMARKS
SIOUX FALLS    MOSUNNY   81  65  58 NE10      30.13R
BROOKINGS      NOT AVBL
WATERTOWN      MOSUNNY   77  55  46 NE17      30.14S
HURON          MOSUNNY   80  59  48 N15       30.14R
SISSETON         N/A     78  57  48 NE14G22   30.13R
ABERDEEN       SUNNY     78  61  55 N13       30.16R
MITCHELL       SUNNY     81  63  54 N10G21    30.15R
PIERRE         MOSUNNY   84  58  40 NE13      30.16S
MOBRIDGE       SUNNY     81  61  50 N9        30.16F
RAPID CITY     SUNNY     83  60  45 SE7       30.22F
$$

  *****  SOME WEATHER IN NEARBY STATES *****

CITY           SKY/WX    TMP DP  RH WIND       PRES   REMARKS
GLASGOW MT     PTSUNNY   83  53  35 VRB3      30.17F
GREAT FALLS MT CLOUDY    74  52  46 S5        30.19S
CHEYENNE WY    SUNNY     84  53  34 E7        30.38F
SCOTTSBLUFF NE SUNNY     88  57  34 E13       30.25F
OMAHA NE       MOSUNNY   90  68  48 N17       30.04R HX  94
DES MOINES IA  CLOUDY    89  78  70 W5        29.99R HX 103
DAVENPORT IA   MOSUNNY   87  76  69 W10       29.94F HX  97
CHICAGO IL     MOSUNNY   88  69  53 SW17G23   29.95F HX  92
EAU CLAIRE WI  PTSUNNY   84  65  52 NW12      29.96R
LA CROSSE WI   SUNNY     90  69  50 NW16      29.93R HX  94
$$

  *****  SOME NATIONAL WEATHER *****

CITY           SKY/WX    TMP DP  RH WIND       PRES   REMARKS
LA GUARDIA NY  PTSUNNY   85  66  53 S18       30.10F
RALEIGH NC     PTSUNNY   80  71  74 SE5       30.13F
ATLANTA GA     PTSUNNY   81  68  64 E8        30.12F
NEW ORLEANS LA PTSUNNY   85  71  63 E5        30.02F HX  90
OKLAHOMA CITY  MOSUNNY   93  73  52 S3        30.09F HX 102
ALBUQUERQUE NM MOSUNNY   91  47  21 N6        30.27F
SALT LAKE CITY MOSUNNY   92  31  11 SW9       30.19F
LOS ANGELES CA MOSUNNY   76  60  57 W14       30.06S
BOISE ID       MOSUNNY   88  48  25 CALM      30.13F
SEATTLE WA     CLOUDY    62  51  67 S7        30.09R
$$

*** WEATHER ACROSS MANITOBA...SASKATCHEWAN AND ONTARIO ***
                ***ONTARIO***

CITY           SKY/WX    TMP DP  RH WIND       PRES   REMARKS
GERALDTON      LGT RAIN  59  57  94 N12       29.80R FOG
THUNDER BAY    PTSUNNY   72  61  68 N17G36    29.86R
SIOUX LOOKOUT  PTSUNNY   70  54  56 N12G21    30.01R
TORONTO        SUNNY     84  61  45 SE12G17   30.01F
BIG TROUT LK   MOSUNNY   64  45  48 NE8       30.05R
PICKLE LAKE    PTSUNNY   61  52  72 N6G17     30.01R
DRYDEN         PTSUNNY   72  52  49 NW13G18   30.03R
KENORA         NOT AVBL
$$
                *** MANITOBA***

CITY           SKY/WX    TMP DP  RH WIND       PRES   REMARKS
BRANDON        PTSUNNY   75  57  53 E8        30.19R
DAUPHIN        MOSUNNY   72  59  64 NE12G17   30.19S
ISLAND LAKE    MOSUNNY   66  45  45 N5        30.15S
PILOT MOUND      N/A     72  57  60 N6          N/A
THE PAS        MOSUNNY   68  46  45 CALM      30.22S
THOMPSON       PTSUNNY   68  48  49 W9        30.18S
WINNIPEG       MOSUNNY   75  52  43 NW16G24   30.14S
LYNN LAKE      MOSUNNY   70  45  40 NW7       30.20S
CHURCHILL      MOSUNNY   61  50  67 E9        30.06S
GILLAM         MOSUNNY   64  50  59 W8        30.13S
$$
                ***SASKATCHEWAN***

CITY           SKY/WX    TMP DP  RH WIND       PRES   REMARKS
ESTEVAN        PTSUNNY   75  59  57 NE8       30.21S
KINDERSLEY     PTSUNNY   73  59  60 SE9       30.22F
LLOYDMINSTER   MOSUNNY   73  54  49 S9        30.21S
PRINCE ALBERT  CLOUDY    73  54  49 CALM      30.23R
REGINA         MOSUNNY   77  50  38 VRB3      30.23R



USA.gov is the U.S. government's official web portal to all federal, state and local government web resources and services.